Location: Oshawa
(43.9000°N, 78.8670°W)
Time: 08:07:36
(UTC-04:00)

Iridium 54 - Visible Passes

Search period start: 21 September 2014 00:00
Search period end: 01 October 2014 00:00
Orbit: 776 x 779 km, 86.4° (Epoch: 19 September)

Date Brightness Start Highest point End Pass type
(mag) Time Alt. Az. Time Alt. Az. Time Alt. Az.
21 Sep 7.6 03:30:24 19° E 03:31:39 21° E 03:35:29 10° NNE visible
21 Sep 5.7 05:10:54 42° WSW 05:11:59 48° W 05:17:02 10° N visible
22 Sep 8.3 02:57:32 11° E 02:58:30 12° ENE 03:00:14 10° NE visible
22 Sep 5.4 04:38:02 78° SSW 04:38:24 86° W 04:43:38 10° N visible
22 Sep 7.4 06:18:38 10° W 06:19:56 11° WNW 06:21:15 10° NW visible
23 Sep 6.2 04:05:07 52° E 04:05:07 52° E 04:09:59 10° NNE visible
23 Sep 6.8 05:45:38 20° W 05:45:59 20° WNW 05:49:44 10° NNW visible
24 Sep 7.2 03:32:11 29° ENE 03:32:11 29° ENE 03:36:02 10° NNE visible
24 Sep 6.3 05:12:41 33° WNW 05:12:41 33° WNW 05:16:55 10° NNW visible
25 Sep 8.0 02:59:12 16° ENE 02:59:12 16° ENE 03:01:35 10° NE visible
25 Sep 6.0 04:39:42 48° NNW 04:39:42 48° NNW 04:43:41 10° N visible
26 Sep 6.5 04:06:41 43° NNE 04:06:41 43° NNE 04:10:11 10° N visible
26 Sep 7.3 05:47:11 13° WNW 05:47:11 13° WNW 05:48:59 10° NW visible
27 Sep 7.3 03:33:38 28° NE 03:33:38 28° NE 03:36:26 10° NNE visible
27 Sep 7.0 05:14:08 21° NW 05:14:08 21° NW 05:16:39 10° NNW visible
28 Sep 8.0 03:00:34 18° NE 03:00:34 18° NE 03:02:19 10° NNE visible
28 Sep 6.9 04:41:04 27° NNW 04:41:04 27° NNW 04:43:38 10° N visible
29 Sep 7.1 04:07:59 27° N 04:07:59 27° N 04:10:17 10° N visible
30 Sep 7.6 03:34:52 22° NNE 03:34:52 22° NNE 03:36:41 10° N visible
30 Sep 7.6 05:15:21 13° NW 05:15:21 13° NW 05:16:09 10° NNW visible
